Location: Grandview
(34.8900°N, 117.1058°W)
Time: 18:40:33
(UTC-08:00)

Envisat - Pass Details

Date: 12 October 2017
Orbit: 764 x 766 km, 98.2° (Epoch: 13 December)

Event Time Altitude Azimuth Distance (km) Brightness Sun altitude
Exits shadow 20:14:13 28° 21° (NNE) 1,424 4.2 -24.8°
Drops below altitude 10° 20:16:49 10° 2° (N) 2,308 5.5 -25.3°
Sets 20:19:13 0° 356° (N) 3,239 6.4 -25.8°
